This demonstration page uses our WeatherBlox Daily Observations layout. Learn more.

Left ArrowRight Arrow

Hourly Observations for April 28, 2018

Temp ( °F °C ) Dew Point ( °F °C ) Humidity (%) Winds ( mph kmh ) Pressure ( in mb ) Visibility ( mi km ) Precip ( " mm )
12:53 am 00:53 Clear 45 7.2 40 4.4 83 83 Calm 29.78 1009 10 16 0.00 0.00
1:53 am 01:53 Cloudy 49 9.4 40 4.4 71 71 ESE 5 7 29.77 1008 10 16 0.00 0.00
2:53 am 02:53 Cloudy 56 13.3 37 2.8 49 49 SW 7 11 29.73 1007 10 16 0.00 0.00
3:53 am 03:53 Mostly Clear 56 13.3 36 2.2 47 47 WSW 8 13 29.73 1007 10 16 0.00 0.00
4:53 am 04:53 Clear 54 12.2 36 2.2 51 51 WSW 7 11 29.73 1007 10 16 0.00 0.00
5:53 am 05:53 Mostly Clear 52 11.1 37 2.8 57 57 W 7 11 29.75 1007 10 16 0.00 0.00
6:50 am 06:50 Sunny 46 8 37 3 71 71 NNW 15 24 29.83 1010 10 16 0.00 0.00
6:53 am 06:53 Sunny 47 8.3 38 3.3 71 71 NNW 13 20 29.81 1010 10 16 0.00 0.00
7:53 am 07:53 Sunny 47 8.3 41 5 80 80 NW 9 15 29.86 1011 10 16 0.00 0.00
8:34 am 08:34 Mostly Cloudy 48 8.9 41 5 77 77 NW 8 13 29.94 1014 10 16 0.00 0.00
8:53 am 08:53 Cloudy 47 8.3 40 4.4 77 77 NNW 12 19 29.91 1013 10 16 0.00 0.00
9:53 am 09:53 Cloudy 46 7.8 39 3.9 77 77 NNW 9 15 29.95 1014 10 16 0.00 0.00
10:53 am 10:53 Cloudy 46 7.8 39 3.9 77 77 NW 12 19 29.98 1015 10 16 0.00 0.00
11:53 am 11:53 Cloudy 48 8.9 38 3.3 68 68 N 10 17 30.01 1016 10 16 0.00 0.00
12:05 pm 12:05 Cloudy 50 10 39 3.9 66 66 N 9 15 30.03 1017 10 16 0.00 0.00
12:53 pm 12:53 Mostly Cloudy 51 10.6 37 2.8 59 59 N 13 20 30.03 1017 10 16 0.00 0.00
1:53 pm 13:53 Mostly Cloudy 52 11.1 38 3.3 59 59 NNE 10 17 30.04 1017 10 16 0.00 0.00
2:53 pm 14:53 Cloudy 51 10.6 36 2.2 56 56 NNE 9 15 30.05 1018 10 16 0.00 0.00
3:53 pm 15:53 Mostly Cloudy 55 12.8 36 2.2 49 49 N 8 13 30.05 1018 10 16 0.00 0.00
4:53 pm 16:53 Mostly Cloudy 55 12.8 33 0.6 44 44 NW 15 24 30.06 1018 10 16 0.00 0.00
5:53 pm 17:53 Cloudy 57 13.9 32 0 39 39 N 12 19 30.08 1019 10 16 0.00 0.00
6:53 pm 18:53 Cloudy 52 11.1 31 -0.6 45 45 NNW 13 20 30.10 1019 10 16 0.00 0.00
7:53 pm 19:53 Mostly Sunny 51 10.6 31 -0.6 46 46 N 6 9 30.11 1020 10 16 0.00 0.00
8:53 pm 20:53 Cloudy 45 7.2 36 2.2 71 71 Calm 30.13 1020 10 16 0.00 0.00
9:53 pm 21:53 Mostly Cloudy 43 6.1 36 2.2 76 76 WNW 3 6 30.15 1021 10 16 0.00 0.00
10:53 pm 22:53 Clear 43 6.1 31 -0.6 63 63 NNW 5 7 30.17 1022 10 16 0.00 0.00
11:53 pm 23:53 Clear 43 6.1 25 -3.9 49 49 NNW 6 9 30.20 1023 10 16 0.00 0.00

Powered by AerisWeather